Location: Franzen
(48.6167°N, 15.3833°E)
Time: 05:48:53
(UTC+00:00)

Cosmos 1655 Rocket - Visible Passes

Search period start: 29 July 2021 00:00
Search period end: 08 August 2021 00:00
Orbit: 971 x 1005 km, 82.9° (Epoch: 28 July)

Date Brightness Start Highest point End Pass type
(mag) Time Alt. Az. Time Alt. Az. Time Alt. Az.
29 Jul 4.7 20:27:49 20° SE 20:31:30 37° E 20:37:16 10° NNE visible
29 Jul 4.9 22:12:44 19° SW 22:17:04 43° WNW 22:23:10 10° N visible
30 Jul 5.9 19:14:16 10° E 19:16:10 11° ENE 19:18:05 10° NE visible
30 Jul 4.1 20:56:39 24° SSE 21:00:32 65° E 21:06:53 10° NNE visible
30 Jul 5.8 22:41:34 10° WSW 22:46:44 26° WNW 22:51:59 10° N visible
31 Jul 5.4 19:40:32 11° SE 19:44:48 22° E 19:49:27 10° NNE visible
31 Jul 4.2 21:25:27 22° SSW 21:29:46 73° W 21:36:12 10° N visible
31 Jul 6.3 23:13:11 10° W 23:16:40 15° WNW 23:20:13 10° NNW visible
01 Aug 4.7 20:09:18 17° SE 20:13:37 38° E 20:19:27 10° NNE visible
01 Aug 5.0 21:54:13 15° SW 21:59:14 42° WNW 22:05:18 10° N visible
02 Aug 4.1 20:38:02 19° S 20:42:40 68° E 20:49:02 10° NNE visible
02 Aug 5.9 22:23:50 10° WSW 22:28:56 25° WNW 22:34:05 10° N visible
03 Aug 5.3 19:22:08 10° SE 19:26:54 23° E 19:31:41 10° NNE visible
03 Aug 4.3 21:06:45 16° SSW 21:11:56 70° WNW 21:18:21 10° N visible
03 Aug 6.4 22:55:33 10° W 22:58:53 14° WNW 23:02:14 10° NNW visible
04 Aug 4.6 19:50:30 13° SSE 19:55:45 40° E 20:01:39 10° NNE visible
04 Aug 5.2 21:35:27 10° SW 21:41:24 40° WNW 21:47:25 10° N visible
05 Aug 4.0 20:19:07 13° S 20:24:48 71° E 20:31:12 10° NNE visible
05 Aug 6.0 22:06:06 10° WSW 22:11:07 24° WNW 22:16:10 10° NNW visible
06 Aug 5.2 19:04:07 10° SE 19:09:00 24° E 19:13:54 10° NNE visible
06 Aug 4.4 20:47:44 10° SSW 20:54:05 67° WNW 21:00:29 10° N visible
06 Aug 6.5 22:37:58 10° W 22:41:06 14° NW 22:44:14 10° NNW visible
07 Aug 4.5 19:31:58 10° SSE 19:37:52 42° E 19:43:49 10° NNE visible
07 Aug 5.3 21:17:40 10° SW 21:23:35 38° WNW 21:29:32 10° N visible
